This is the latest recevied weather packets stored in our database for station/object AD7ZD. If no packets are shown the sender has not sent any weather packets the latest 10 day(s).
| Time | Temp. | Humidity | Pressure | Rain* | Wind** | Luminosity | Snow |
|---|---|---|---|---|---|---|---|
| 1777825555 | 16.67° C | 42% | 1010.4 hPa | 0 mm | - | 219 W/m² | - |
| 1777825254 | 16.11° C | 42% | 1010.5 hPa | 0 mm | - | 219 W/m² | - |
| 1777824950 | 16.67° C | 43% | 1010.4 hPa | 0 mm | - | 264 W/m² | - |
| 1777824646 | 16.67° C | 42% | 1010.4 hPa | 0 mm | - | 231 W/m² | - |
| 1777824344 | 16.11° C | 41% | 1010.4 hPa | 0 mm | - | 272 W/m² | - |
| 1777824039 | 16.11° C | 41% | 1010.5 hPa | 0 mm | - | 241 W/m² | - |
| 1777823736 | 16.11° C | 41% | 1010.6 hPa | 0 mm | - | 214 W/m² | - |
| 1777823433 | 16.11° C | 41% | 1010.5 hPa | 0 mm | - | 198 W/m² | - |
| 1777823130 | 16.67° C | 40% | 1010.4 hPa | 0 mm | - | 186 W/m² | - |
| 1777822827 | 16.11° C | 40% | 1010.3 hPa | 0 mm | - | 181 W/m² | - |
| 1777822526 | 16.11° C | 41% | 1010.6 hPa | 0 mm | - | 180 W/m² | - |
| 1777822223 | 16.11° C | 41% | 1010.5 hPa | 0 mm | - | 185 W/m² | - |
| 1777821920 | 16.11° C | 42% | 1010.5 hPa | 0 mm | - | 229 W/m² | - |
| 1777821618 | 15.56° C | 43% | 1010.8 hPa | 0 mm | - | 207 W/m² | - |
| 1777821316 | 15° C | 44% | 1010.8 hPa | 0 mm | - | 202 W/m² | - |
| 1777821012 | 15° C | 44% | 1010.5 hPa | 0 mm | - | 181 W/m² | - |
| 1777820709 | 15° C | 45% | 1010.5 hPa | 0 mm | - | 170 W/m² | - |
| 1777820405 | 14.44° C | 46% | 1010.8 hPa | 0 mm | - | 155 W/m² | - |
| 1777820103 | 13.89° C | 48% | 1010.9 hPa | 0 mm | - | 142 W/m² | - |
| 1777819800 | 13.33° C | 50% | 1010.6 hPa | 0 mm | - | 126 W/m² | - |
| 1777819497 | 12.78° C | 51% | 1010.8 hPa | 0 mm | - | 119 W/m² | - |
| 1777819195 | 12.22° C | 53% | 1010.6 hPa | 0 mm | - | 114 W/m² | - |
| 1777818891 | 11.67° C | 54% | 1011 hPa | 0 mm | - | 111 W/m² | - |
| 1777818587 | 11.67° C | 55% | 1010.8 hPa | 0 mm | - | 110 W/m² | - |
| 1777818285 | 11.11° C | 55% | 1011.1 hPa | 0 mm | - | 100 W/m² | - |
* Rain latest hour (hover to see other rain measurements)
** Current wind speed in m/s (hover to see current wind gust speed)